Location: ?????
(30.2541°N, 31.0910°E)
Time: 06:33:46
(UTC+00:00)

IRIDIUM 33 DEB - Visible Passes

Search period start: 21 May 2024 00:00
Search period end: 31 May 2024 00:00
Orbit: 767 x 785 km, 86.4° (Epoch: 20 May)

Date Brightness Start Highest point End Pass type
(mag) Time Alt. Az. Time Alt. Az. Time Alt. Az.
22 May 8.3 02:06:16 10° SSE 02:11:20 57° E 02:16:26 10° N visible
23 May 9.6 01:33:07 10° SE 01:37:27 28° E 01:41:50 10° NNE visible
24 May 10.3 01:01:08 10° ESE 01:03:42 14° E 01:06:15 10° NE visible
25 May 7.6 02:04:36 10° S 02:09:47 84° E 02:15:01 10° N visible
26 May 8.8 01:31:02 10° SSE 01:35:50 40° E 01:40:42 10° NNE visible
27 May 9.9 00:58:16 10° SE 01:02:00 20° E 01:05:46 10° NE visible
28 May 7.5 02:03:06 10° S 02:08:15 67° W 02:13:28 10° N visible
29 May 8.0 01:29:08 10° SSE 01:34:14 60° E 01:39:23 10° N visible
30 May 9.3 00:55:53 10° SE 01:00:20 29° E 01:04:48 10° NNE visible
